Regional Weather Roundup
Issued by NWS

Home | Current Version | Previous Version | Graphics & Text | Print | Product List | Glossary On
Versions: 1 2 3 4 5 6 7 8 9 10 11 12 13 14 15 16 17 18 19 20 21 22 23 24 25 26 27 28 29 30 31 32 33 34 35 36 37 38 39 40 41 42 43 44 45 46 47 48 49 50
000
ASUS43 KIND 020009
RWRIN

WEATHER ROUNDUP FOR INDIANA
NATIONAL WEATHER SERVICE INDIANAPOLIS IN
800 PM EDT MON JUN 01 2015

NOTE: "FAIR" INDICATES FEW OR NO CLOUDS BELOW 12,000 FEET WITH NO
SIGNIFICANT WEATHER AND/OR OBSTRUCTIONS TO VISIBILITY.

* - STATION DOES NOT REPORT WEATHER SUCH AS PRECIPITATION OR FOG.

+ - STATION NOT QUALITY CONTROLLED BY THE NATIONAL WEATHER SERVICE.
    USE DATA WITH CAUTION...ESPECIALLY DEWPOINT AND RELATIVE
    HUMIDITY OBSERVATIONS.

INZ001>003-010>013-019-020-020100-
NORTHWEST INDIANA

CITY           SKY/WX    TMP DP  RH WIND       PRES   REMARKS
GARY /AIRPORT/ SUNNY     54  39  58 N12       30.22R
KNOX *+        SUNNY     59  45  58 N8        30.17R
LA PORTE +     SUNNY     58  46  63 N9        30.19R
6HR MIN TEMP:  58; 6HR MAX TEMP:  65;

MICHIGAN CITY+ SUNNY     52  43  71 N3        30.21R
MONTICELLO +   PTSUNNY   64  52  64 E6        30.15S
6HR MIN TEMP:  59; 6HR MAX TEMP:  66;

RENSSELAER +   PTSUNNY   61  54  77 N12       30.16S
VALPARAISO     SUNNY     55  40  56 N9        30.19R
6HR MIN TEMP:  55; 6HR MAX TEMP:  65;


$$

LMZ046-743>745-020100-
SOUTHERN LAKE MICHIGAN

STATION/POSITION TIME  TEMP    WIND        PRES    WAVE
                       AIR SEA DIR/SP/G            HT
                 (UTC) (F)     (DEG/KT/KT) (MB)    (FT)
BURNS HARBOR     0000           30/  9/ 12 1023.4S
MICHIGAN CITY    0000   49      10/ 10/ 11   N/A
5NW MICH CITY    0000   49 54   30/ 10/ 14   N/A     2

$$

INZ004-005-014>016-021>024-020100-
NORTH CENTRAL INDIANA

CITY           SKY/WX    TMP DP  RH WIND       PRES   REMARKS
ELKHART        SUNNY     64  41  42 E6        30.18R
GOSHEN         SUNNY     64  47  53 E6        30.17R
6HR MIN TEMP:  61; 6HR MAX TEMP:  66;

LOGANSPORT +   SUNNY     61  48  63 E6        30.17S
PERU/GRISSOM   MOSUNNY   60  51  72 NE8       30.15S
6HR MIN TEMP:  59; 6HR MAX TEMP:  63;

ROCHESTER +    PTSUNNY   64  48  55 E8        30.17S
SOUTH BEND     SUNNY     64  47  53 W5        30.18R
6HR MIN TEMP:  63; 6HR MAX TEMP:  68;

WARSAW +       MOSUNNY   63  45  51 E7        30.17S

$$

INZ006>009-017-018-025>027-020100-
NORTHEAST INDIANA

CITY           SKY/WX    TMP DP  RH WIND       PRES   REMARKS
ANGOLA *+      SUNNY     63  52  67 E5        30.16F
AUBURN +       PTSUNNY   61  46  59 NE5       30.19R
FORT WAYNE     PTSUNNY   59  49  69 NE9       30.18R
6HR MIN TEMP:  57; 6HR MAX TEMP:  61;

HUNTINGTON +   PTSUNNY   59  49  69 E5        30.17S
6HR MIN TEMP:  57; 6HR MAX TEMP:  61;


$$

INZ028-029-035-036-043>045-051>053-020100-
WEST CENTRAL INDIANA

CITY           SKY/WX    TMP DP  RH WIND       PRES   REMARKS
CRAWFORDSVL +  SUNNY     59  47  65 NE8       30.15R
6HR MIN TEMP:  56; 6HR MAX TEMP:  62;

GREENCASTLE +  CLOUDY    61  48  63 NE9       30.15R
LAFAYETTE      MOSUNNY   62  52  69 E12       30.15S
6HR MIN TEMP:  59; 6HR MAX TEMP:  64;

TERRE HAUTE    CLOUDY    62  53  72 E5        30.14R
6HR MIN TEMP:  60; 6HR MAX TEMP:  63;


$$

INZ030>032-037>040-046>048-054>057-064-065-020100-
CENTRAL INDIANA

CITY           SKY/WX    TMP DP  RH WIND       PRES   REMARKS
CP ATTERBURY + CLOUDY    57  52  82 NE6       30.15R
COLUMBUS       CLOUDY    57  52  82 NE10      30.14S
FRANKFORT +    PTSUNNY   61  52  72 N9        30.17S
6HR MIN TEMP:  57; 6HR MAX TEMP:  64;

GREENWOOD *+   CLOUDY    59  48  67 E8        30.16R
INDIANAPOLIS   CLOUDY    60  50  69 NE10      30.14R
6HR MIN TEMP:  56; 6HR MAX TEMP:  64; 6HR PCP: TRACE;

-EAGLE CREEK   CLOUDY    59  50  72 E10       30.15R
6HR MIN TEMP:  56; 6HR MAX TEMP:  62;

KOKOMO *+      PTSUNNY   59  52  77 E8        30.17R
6HR MIN TEMP:  57; 6HR MAX TEMP:  61;

MARION +       PTSUNNY   58  49  70 E12       30.17S
MT COMFORT *+  CLOUDY    57  46  67 NE10      30.17R
SHELBYVILLE    CLOUDY    59  51  75 NE12      30.14R
6HR MIN TEMP:  57; 6HR MAX TEMP:  61; 6HR PCP:  0.01;

ZIONSVILLE +   PTSUNNY   59  50  73 NE12      30.16S
6HR MIN TEMP:  57; 6HR MAX TEMP:  62;


$$

INZ033-034-041-042-049-050-058-059-020100-
EAST CENTRAL INDIANA

CITY           SKY/WX    TMP DP  RH WIND       PRES   REMARKS
MUNCIE         PTSUNNY   57  49  74 NE13      30.17R
6HR MIN TEMP:  54; 6HR MAX TEMP:  58; 6HR PCP: TRACE;


$$

INZ060-061-067>069-081>083-085>088-020100-
SOUTHWEST INDIANA

CITY           SKY/WX    TMP DP  RH WIND       PRES   REMARKS
EVANSVILLE     CLOUDY    63  54  72 N10       30.11R
6HR MIN TEMP:  62; 6HR MAX TEMP:  65;

HUNTINGBURG *+ CLOUDY    61  54  77 NE8       30.11S
6HR MIN TEMP:  59; 6HR MAX TEMP:  63;

WASHINGTON +   CLOUDY    61  53  74 NE5       30.12S
6HR MIN TEMP:  58; 6HR MAX TEMP:  61;


$$

INZ062-063-066-070>080-084-089>092-020100-
SOUTH CENTRAL AND SOUTHEAST INDIANA

CITY           SKY/WX    TMP DP  RH WIND       PRES   REMARKS
BLOOMINGTON    CLOUDY    59  52  77 NE9       30.13R
6HR MIN TEMP:  57; 6HR MAX TEMP:  61;

MADISON *+     CLOUDY    57  52  82 NE7       30.14R
NORTH VERNON + CLOUDY    59  59 100 NE5       30.13R
SEYMOUR +      CLOUDY    61  54  77 NE9       30.12R

$$




USA.gov is the U.S. government's official web portal to all federal, state and local government web resources and services.